Satellite: RS-30
Catalog number: 32953
Epoch time:      09364.74535546
Element set:     488
Inclination:      082.5022 deg
RA of node:       134.4184 deg
Eccentricity:    0.0019736
Arg of perigee:   109.9321 deg
Mean anomaly:     250.3887 deg
Mean motion:   12.43003216 rev/day
Decay rate:        1.0e-07 rev/day^2
Epoch rev:            7281
Checksum:              286

Satellite: TACSAT-3
Catalog number: 35001
Epoch time:      09364.85883741
Element set:    0193
Inclination:      040.4544 deg
RA of node:       143.7890 deg
Eccentricity:    0.0022442
Arg of perigee:   188.7667 deg
Mean anomaly:     171.2757 deg
Mean motion:   15.39882732 rev/day
Decay rate:      3.096e-05 rev/day^2
Epoch rev:           03466
Checksum:              325

Satellite: PHARMSAT
Catalog number: 35002
Epoch time:      09364.81459203
Element set:     172
Inclination:      040.4674 deg
RA of node:       142.7862 deg
Eccentricity:    0.0025404
Arg of perigee:   192.4719 deg
Mean anomaly:     167.5470 deg
Mean motion:   15.40582584 rev/day
Decay rate:      3.110e-05 rev/day^2
Epoch rev:            3466
Checksum:              281

Satellite: HAWKSAT1
Catalog number: 35003
Epoch time:      09364.76882664
Element set:    0190
Inclination:      040.4610 deg
RA of node:       141.3592 deg
Eccentricity:    0.0025013
Arg of perigee:   198.1058 deg
Mean anomaly:     161.8868 deg
Mean motion:   15.41908647 rev/day
Decay rate:      6.274e-05 rev/day^2
Epoch rev:           03468
Checksum:              305

Satellite: CP6
Catalog number: 35004
Epoch time:      09364.75791109
Element set:     172
Inclination:      040.4609 deg
RA of node:       141.2846 deg
Eccentricity:    0.0024204
Arg of perigee:   198.3134 deg
Mean anomaly:     161.6815 deg
Mean motion:   15.42149128 rev/day
Decay rate:      7.309e-05 rev/day^2
Epoch rev:            3467
Checksum:              291

Satellite: AEROCUB3
Catalog number: 35005
Epoch time:      09364.78683145
Element set:     178
Inclination:      040.4720 deg
RA of node:       141.7562 deg
Eccentricity:    0.0023853
Arg of perigee:   195.7055 deg
Mean anomaly:     164.3023 deg
Mean motion:   15.42121926 rev/day
Decay rate:     1.3122e-04 rev/day^2
Epoch rev:            3467
Checksum:              280

Satellite: DRAGNSAT
Catalog number: 35690
Epoch time:      09365.43509443
Element set:     163
Inclination:      051.6371 deg
RA of node:       001.0839 deg
Eccentricity:    0.0003544
Arg of perigee:   004.5183 deg
Mean anomaly:     355.5886 deg
Mean motion:   15.91903095 rev/day
Decay rate:     5.3127e-04 rev/day^2
Epoch rev:            2441
Checksum:              287

Satellite: POLLUX
Catalog number: 35693
Epoch time:      09365.33495068
Element set:     166
Inclination:      051.6382 deg
RA of node:       002.6913 deg
Eccentricity:    0.0000645
Arg of perigee:   357.5440 deg
Mean anomaly:     002.5183 deg
Mean motion:   15.90152568 rev/day
Decay rate:     4.9614e-04 rev/day^2
Epoch rev:            2435
Checksum:              295

Satellite: CASTOR
Catalog number: 35694
Epoch time:      09365.34632482
Element set:     145
Inclination:      051.6412 deg
RA of node:       005.0943 deg
Eccentricity:    0.0001792
Arg of perigee:   261.3449 deg
Mean anomaly:     098.7189 deg
Mean motion:   15.84793086 rev/day
Decay rate:     1.8984e-04 rev/day^2
Epoch rev:            2432
Checksum:              321

Satellite: METEOR-M
Catalog number: 35865
Epoch time:      09364.80516855
Element set:      90
Inclination:      098.7849 deg
RA of node:       054.6077 deg
Eccentricity:    0.0002978
Arg of perigee:   119.0704 deg
Mean anomaly:     241.0704 deg
Mean motion:   14.21828349 rev/day
Decay rate:       1.76e-06 rev/day^2
Epoch rev:            1479
Checksum:              323

/EX


More information about the Keps mailing list